[[{"header":{"parameterUnit":"m.s-1","parameterCategory":1,"la1":30.2991,"la2":30.254,"lo1":-89.0895,"lo2":-89.0444,"dy":0.0017,"dx":0.0017,"nx":28,"ny":28,"refTime":"2025-12-24T09:00:00:Z","depth":0,"parameterNumber":2,"parameterNumberName":"U-component_of_WINDS"},"data":[0,0,0,0,0,0,0,0,0,0,0,0,0,0,0,0,0,0,0,0,0,0,0,0,0,0,0,0,0,0,0,0,0,0,0,0,0,0,0,0,0,0,0,0,0,0,0,0,0,0,0,0,0,0,0,0,0,0,-1.1441,-1.1441,0,-1.1424,-1.1423,-1.1423,-1.1361,-1.1359,-1.1358,-1.1357,-1.1341,-1.1342,-1.1343,0,0,0,0,0,0,0,0,0,0,0,0,0,-1.1423,-1.1424,-1.1441,-1.1441,-1.1441,-1.1424,-1.1423,-1.1423,-1.1361,-1.1359,-1.1358,-1.1356,-1.1341,-1.1342,-1.1343,0,0,0,0,0,0,0,0,0,0,0,0,0,-1.1421,-1.1424,-1.1441,-1.1408,-1.1404,-1.1424,-1.1423,-1.1423,-1.1361,-1.1359,-1.1357,-1.1355,-1.134,-1.1342,-1.1343,-1.1394,0,0,-1.1347,-1.1348,0,0,0,0,0,0,0,0,-1.1421,-1.1422,-1.1413,-1.141,-1.1406,-1.1392,-1.1411,-1.1413,-1.1362,-1.1378,-1.1357,-1.1354,-1.136,-1.1359,-1.1361,-1.1393,-1.1392,-1.1347,-1.1348,-1.1349,-1.1349,0,0,0,0,0,0,0,-1.1421,-1.1422,-1.1434,-1.1413,-1.1409,-1.1394,-1.1391,-1.1411,-1.1381,-1.1376,-1.1372,-1.137,-1.1358,-1.136,-1.136,-1.1392,-1.1347,-1.1348,-1.1349,-1.135,-1.1465,-1.1467,0,0,0,0,0,0,-1.1426,-1.1423,-1.1435,-1.1434,-1.1409,-1.1396,-1.1393,-1.1399,-1.1381,-1.1376,-1.1372,-1.1368,-1.1358,-1.1359,-1.1359,-1.1417,-1.1349,-1.135,-1.1351,-1.1463,-1.1465,-1.1468,0,0,0,0,0,0,-1.1426,-1.1428,-1.1436,-1.1427,-1.1427,-1.1399,-1.1406,-1.14,-1.1402,-1.1377,-1.1372,-1.138,-1.1357,-1.1357,-1.1385,-1.1416,-1.135,-1.1352,-1.146,-1.1464,-1.1467,-1.1535,0,0,0,0,0,0,-1.1426,-1.1428,-1.1447,-1.1428,-1.1427,-1.1462,-1.1408,-1.1401,-1.1404,-1.1398,-1.1383,-1.1379,-1.1355,-1.1384,-1.1387,-1.1417,-1.1353,-1.1457,-1.1462,-1.1466,-1.153,-1.154,-1.1549,0,0,0,0,0,-1.1425,-1.1467,-1.1448,-1.145,-1.145,-1.1464,-1.1464,-1.1435,-1.1407,-1.1425,-1.141,-1.1379,-1.1412,-1.1387,-1.139,-1.1421,-1.1455,-1.146,-1.1465,-1.1525,-1.1538,-1.1549,0,0,0,0,0,0,-1.1491,-1.1464,-1.1442,-1.1479,-1.1474,-1.1453,-1.1476,-1.1449,-1.1453,-1.1447,-1.1412,-1.1409,-1.1442,-1.1434,-1.1407,-1.1469,-1.1429,-1.1434,-1.1473,-1.1485,-1.1494,-1.1496,-1.1354,0,0,0,0,0,-1.151,-1.1523,-1.1498,-1.1533,-1.1532,-1.1505,-1.1509,-1.1488,-1.1481,-1.1479,-1.1465,-1.1461,-1.147,-1.1477,-1.1484,-1.1528,-1.1524,-1.1551,-1.156,-1.1568,-1.1574,-1.1597,-1.1608,-1.1485,-1.1484,-1.1484,0,0,-1.1549,-1.1536,-1.1546,-1.1546,-1.154,-1.1554,-1.1503,-1.1521,-1.1531,-1.1482,-1.1507,-1.1497,-1.149,-1.1526,-1.1541,-1.152,-1.1607,-1.1575,-1.1581,-1.1583,-1.1603,-1.1615,-1.1625,-1.1488,-1.1487,-1.1487,0,0,-1.1628,-1.1619,-1.1647,-1.1641,-1.1631,-1.1613,-1.162,-1.1602,-1.1594,-1.1618,-1.1582,-1.1594,-1.1611,-1.1607,-1.1607,-1.1684,-1.1656,-1.1687,-1.1738,-1.176,-1.177,-1.1778,-1.1806,-1.1816,-1.1693,-1.1693,-1.1693,0,-1.1678,-1.1698,-1.1665,-1.1685,-1.1686,-1.1641,-1.1669,-1.1666,-1.1659,-1.1661,-1.1638,-1.1657,-1.1649,-1.1684,-1.1703,-1.1704,-1.1711,-1.1689,-1.1771,-1.1779,-1.1787,-1.1813,-1.1823,-1.1697,-1.1697,-1.1696,-1.1696,0,-1.176,-1.1774,-1.1798,-1.1792,-1.1796,-1.182,-1.1791,-1.1799,-1.1777,-1.1762,-1.1787,-1.1776,-1.178,-1.1786,-1.1765,-1.1818,-1.1806,-1.1777,-1.1736,-1.1803,-1.1827,-1.1836,-1.1703,-1.1701,-1.17,-1.1699,0,0,-1.1881,-1.1856,-1.1865,-1.1862,-1.1847,-1.1858,-1.188,-1.1883,-1.1891,-1.1888,-1.1906,-1.192,-1.1894,-1.1894,-1.1872,-1.1892,-1.1954,-1.1861,-1.186,-1.1879,-1.2011,-1.2033,-1.2045,-1.1935,-1.1936,-1.1938,-1.2012,0,-1.1956,-1.1991,-1.1962,-1.2004,-1.2016,-1.1973,-1.1992,-1.1986,-1.1972,-1.1981,-1.1965,-1.1976,-1.194,-1.194,-1.1958,-1.1942,-1.198,-1.1937,-1.1952,-1.1953,-1.1955,-1.2057,-1.2081,-1.2151,-1.2021,-1.2023,-1.2024,0,-1.2048,-1.2049,-1.2091,-1.2073,-1.2077,-1.2095,-1.2095,-1.2104,-1.2096,-1.2084,-1.2085,-1.2057,-1.2078,-1.2037,-1.2066,-1.2037,-1.2042,-1.2035,-1.2037,-1.2038,-1.1993,-1.2061,-1.2173,-1.2184,-1.2038,-1.2037,-1.2036,0,-1.2133,-1.2143,-1.217,-1.2168,-1.2148,-1.2162,-1.2154,-1.2144,-1.2147,-1.2148,-1.215,-1.2153,-1.2155,-1.2159,-1.2133,-1.2106,-1.2165,-1.2122,-1.2157,-1.2157,-1.2172,-1.2171,-1.2286,-1.2174,-1.2174,-1.2174,-1.2173,0,-1.222,-1.2247,-1.2207,-1.2224,-1.2253,-1.222,-1.225,-1.2238,-1.223,-1.2243,-1.2207,-1.222,-1.2185,-1.2196,-1.2176,-1.2203,-1.2204,-1.2196,-1.219,-1.2199,-1.22,-1.2202,-1.2197,-1.2176,-1.2176,-1.2175,-1.2175,0,-1.2319,-1.2293,-1.2319,-1.2298,-1.2293,-1.2316,-1.2298,-1.2313,-1.2295,-1.2313,-1.2316,-1.2289,-1.2299,-1.2274,-1.2281,-1.2267,-1.2306,-1.2292,-1.2309,-1.2305,-1.2341,-1.2338,-1.2461,-1.2475,-1.2354,-1.2355,-1.2356,0,-1.2377,-1.2397,-1.2377,-1.2383,-1.2377,-1.2388,-1.2391,-1.2359,-1.2363,-1.2355,-1.2371,-1.2378,-1.2382,-1.2401,-1.2383,-1.2388,-1.2374,-1.2417,-1.2375,-1.2383,-1.2375,-1.2374,-1.2376,-1.2426,-1.2427,-1.2429,-1.2429,0,-1.2482,-1.2468,-1.2473,-1.2474,-1.2478,-1.2478,-1.2475,-1.2482,-1.2448,-1.2455,-1.2465,-1.2468,-1.2474,-1.2482,-1.2482,-1.2475,-1.2447,-1.2443,-1.2451,-1.2461,-1.2469,-1.2465,-1.2333,-1.244,-1.2439,-1.2438,-1.2438,-1.2437,-1.2562,-1.2578,-1.2566,-1.2573,-1.2567,-1.2565,-1.2578,-1.2562,-1.2569,-1.2571,-1.2551,-1.2565,-1.2556,-1.2554,-1.255,-1.2561,-1.2541,-1.2553,-1.2556,-1.256,-1.2566,-1.2467,-1.2561,-1.256,-1.256,-1.256,-1.256,0,-1.2665,-1.2655,-1.2662,-1.2658,-1.2664,-1.2636,-1.2631,-1.2638,-1.265,-1.2644,-1.2648,-1.2659,-1.2666,-1.2648,-1.2653,-1.2665,-1.2652,-1.2667,-1.2666,-1.2665,-1.2583,-1.2575,-1.2677,-1.2677,-1.2677,-1.2677,-1.2677,-1.2677,-1.272,-1.2744,-1.2729,-1.2751,-1.2741,-1.2753,-1.2753,-1.2751,-1.2745,-1.2759,-1.2764,-1.2752,-1.2741,-1.2745,-1.275,-1.2745,-1.2748,-1.2768,-1.2758,-1.2682,-1.2671,-1.266,-1.2653,-1.2769,-1.2769,-1.2839,-1.284,-1.284]},{"header":{"parameterUnit":"m.s-1","parameterCategory":1,"la1":30.2991,"la2":30.254,"lo1":-89.0895,"lo2":-89.0444,"dy":0.0017,"dx":0.0017,"nx":28,"ny":28,"refTime":"2025-12-24T09:00:00:Z","depth":0,"parameterNumber":3,"parameterNumberName":"V-component_of_WINDS"},"data":[0,0,0,0,0,0,0,0,0,0,0,0,0,0,0,0,0,0,0,0,0,0,0,0,0,0,0,0,0,0,0,0,0,0,0,0,0,0,0,0,0,0,0,0,0,0,0,0,0,0,0,0,0,0,0,0,0,0,-0.8344,-0.8344,0,-0.8376,-0.8377,-0.8377,-0.8372,-0.8372,-0.8371,-0.8371,-0.8404,-0.8405,-0.8406,0,0,0,0,0,0,0,0,0,0,0,0,0,-0.8276,-0.8277,-0.8344,-0.8344,-0.8344,-0.8376,-0.8377,-0.8377,-0.8373,-0.8372,-0.8371,-0.8371,-0.8403,-0.8405,-0.8406,0,0,0,0,0,0,0,0,0,0,0,0,0,-0.8306,-0.8277,-0.8344,-0.8346,-0.8347,-0.8376,-0.8377,-0.8377,-0.8373,-0.8372,-0.8371,-0.837,-0.8403,-0.8405,-0.8407,-0.8436,0,0,-0.8413,-0.8414,0,0,0,0,0,0,0,0,-0.8305,-0.8309,-0.8345,-0.8346,-0.8347,-0.837,-0.8365,-0.8397,-0.8373,-0.8363,-0.8371,-0.837,-0.8393,-0.8396,-0.8404,-0.8437,-0.8439,-0.8413,-0.8414,-0.8415,-0.8416,0,0,0,0,0,0,0,-0.8303,-0.8307,-0.8357,-0.8346,-0.8347,-0.8345,-0.8348,-0.8371,-0.8382,-0.8364,-0.8363,-0.8367,-0.8393,-0.8402,-0.8404,-0.8439,-0.8413,-0.8415,-0.8416,-0.8417,-0.8497,-0.8498,0,0,0,0,0,0,-0.83,-0.8306,-0.8355,-0.8358,-0.8323,-0.8347,-0.8351,-0.8363,-0.8382,-0.8384,-0.8368,-0.8367,-0.8398,-0.8402,-0.8405,-0.8441,-0.8415,-0.8417,-0.8418,-0.8497,-0.8498,-0.8499,0,0,0,0,0,0,-0.8298,-0.8304,-0.8354,-0.8332,-0.8338,-0.8349,-0.8363,-0.8364,-0.8373,-0.8385,-0.8387,-0.8375,-0.8398,-0.8403,-0.8428,-0.8442,-0.8418,-0.842,-0.8495,-0.8497,-0.8498,-0.8511,0,0,0,0,0,0,-0.8297,-0.8304,-0.8316,-0.8332,-0.8339,-0.8377,-0.8363,-0.8365,-0.8376,-0.8375,-0.8392,-0.8394,-0.8398,-0.8425,-0.843,-0.8444,-0.8422,-0.8494,-0.8496,-0.8498,-0.851,-0.8513,-0.8515,0,0,0,0,0,-0.8294,-0.8318,-0.8316,-0.8322,-0.8354,-0.8378,-0.8382,-0.8386,-0.8377,-0.8389,-0.8397,-0.8393,-0.8439,-0.8428,-0.8433,-0.8448,-0.8494,-0.8496,-0.8498,-0.8508,-0.8512,-0.8515,0,0,0,0,0,0,-0.8303,-0.832,-0.8318,-0.8348,-0.8361,-0.8377,-0.8392,-0.839,-0.8406,-0.8404,-0.8408,-0.8412,-0.8438,-0.8445,-0.8432,-0.8477,-0.8465,-0.8468,-0.8471,-0.8475,-0.8478,-0.8476,-0.8423,0,0,0,0,0,-0.8308,-0.8326,-0.834,-0.8365,-0.8372,-0.8381,-0.8391,-0.8393,-0.8407,-0.8412,-0.8422,-0.8435,-0.8453,-0.8464,-0.8481,-0.851,-0.8514,-0.8523,-0.8526,-0.8528,-0.8531,-0.8547,-0.8551,-0.8505,-0.8505,-0.8505,0,0,-0.8319,-0.8331,-0.8342,-0.8367,-0.8378,-0.8396,-0.8385,-0.8405,-0.8419,-0.8415,-0.844,-0.8448,-0.8463,-0.849,-0.8503,-0.8497,-0.8545,-0.8531,-0.8533,-0.8534,-0.855,-0.8554,-0.8558,-0.8507,-0.8506,-0.8506,0,0,-0.835,-0.836,-0.8382,-0.8393,-0.8409,-0.8414,-0.8419,-0.8435,-0.844,-0.8465,-0.8462,-0.8478,-0.8508,-0.8519,-0.8528,-0.8561,-0.8558,-0.8566,-0.8582,-0.8597,-0.8601,-0.8604,-0.8616,-0.862,-0.8569,-0.8569,-0.8569,0,-0.8362,-0.839,-0.8393,-0.8414,-0.8425,-0.8422,-0.8444,-0.8454,-0.8474,-0.8481,-0.8475,-0.8512,-0.8522,-0.8552,-0.856,-0.8567,-0.8573,-0.8565,-0.86,-0.8603,-0.8606,-0.8618,-0.8622,-0.857,-0.857,-0.857,-0.8569,0,-0.8404,-0.8423,-0.8439,-0.8459,-0.8471,-0.8492,-0.8498,-0.851,-0.8511,-0.8517,-0.8542,-0.8553,-0.8572,-0.8579,-0.858,-0.8609,-0.8605,-0.8599,-0.8588,-0.8612,-0.8622,-0.8627,-0.8571,-0.8571,-0.857,-0.857,0,0,-0.8441,-0.8462,-0.8468,-0.8477,-0.8494,-0.8509,-0.8529,-0.8548,-0.8558,-0.8572,-0.8589,-0.8614,-0.8608,-0.8619,-0.862,-0.8634,-0.8659,-0.8626,-0.8627,-0.8632,-0.8692,-0.8697,-0.8702,-0.8657,-0.8658,-0.8659,-0.8691,0,-0.8473,-0.851,-0.8513,-0.8546,-0.8564,-0.8561,-0.8579,-0.8591,-0.8596,-0.8612,-0.8618,-0.8635,-0.8627,-0.8633,-0.8646,-0.8653,-0.8671,-0.8651,-0.8673,-0.8674,-0.867,-0.8707,-0.8713,-0.8742,-0.8695,-0.8696,-0.8696,0,-0.8516,-0.8531,-0.8566,-0.858,-0.8588,-0.8603,-0.862,-0.8635,-0.8648,-0.8651,-0.8663,-0.8662,-0.8683,-0.867,-0.8698,-0.8684,-0.8693,-0.8697,-0.8699,-0.8701,-0.8687,-0.8712,-0.8752,-0.8757,-0.8703,-0.8702,-0.8702,0,-0.854,-0.8569,-0.8594,-0.8601,-0.8618,-0.863,-0.8637,-0.8649,-0.866,-0.8675,-0.8681,-0.8698,-0.8707,-0.872,-0.8723,-0.8713,-0.8751,-0.8738,-0.8754,-0.8754,-0.8763,-0.8763,-0.8806,-0.8768,-0.8768,-0.8768,-0.8768,0,-0.8576,-0.8598,-0.8605,-0.862,-0.8644,-0.8647,-0.867,-0.8676,-0.8687,-0.8703,-0.8701,-0.8716,-0.872,-0.8735,-0.8738,-0.8761,-0.8765,-0.8768,-0.8769,-0.8769,-0.8768,-0.8775,-0.8773,-0.8769,-0.8769,-0.8768,-0.8768,0,-0.8608,-0.8614,-0.864,-0.8654,-0.8658,-0.8674,-0.8686,-0.87,-0.8705,-0.8725,-0.873,-0.8738,-0.8756,-0.876,-0.8782,-0.8784,-0.8811,-0.8809,-0.8806,-0.8806,-0.8822,-0.8821,-0.8872,-0.8879,-0.8836,-0.8836,-0.8836,0,-0.8631,-0.8647,-0.8663,-0.8673,-0.8681,-0.8698,-0.8709,-0.8712,-0.8724,-0.8739,-0.8752,-0.8769,-0.8784,-0.8812,-0.882,-0.8836,-0.8835,-0.8852,-0.8837,-0.8837,-0.8836,-0.8835,-0.8837,-0.8855,-0.8855,-0.8856,-0.8856,0,-0.8671,-0.8673,-0.8689,-0.8706,-0.8719,-0.8732,-0.8745,-0.8753,-0.8758,-0.8771,-0.8789,-0.88,-0.8822,-0.884,-0.8856,-0.8863,-0.886,-0.886,-0.8865,-0.8865,-0.8863,-0.8865,-0.8814,-0.8859,-0.8859,-0.8859,-0.8859,-0.8858,-0.8699,-0.8714,-0.8727,-0.8744,-0.8754,-0.8766,-0.878,-0.8786,-0.8802,-0.882,-0.8821,-0.8841,-0.8852,-0.8874,-0.8882,-0.8897,-0.8892,-0.8899,-0.8901,-0.8902,-0.8904,-0.886,-0.89,-0.89,-0.89,-0.89,-0.89,0,-0.874,-0.8748,-0.8764,-0.8782,-0.8795,-0.8792,-0.8805,-0.8817,-0.8835,-0.8846,-0.886,-0.8881,-0.8898,-0.8906,-0.8922,-0.8933,-0.8932,-0.8937,-0.8937,-0.8939,-0.8907,-0.8902,-0.8938,-0.8938,-0.8938,-0.8938,-0.8938,-0.8938,-0.8763,-0.8787,-0.879,-0.8818,-0.8826,-0.8846,-0.8854,-0.8864,-0.8874,-0.8897,-0.8911,-0.8916,-0.8926,-0.8943,-0.8958,-0.896,-0.8967,-0.8972,-0.8974,-0.8945,-0.8941,-0.8937,-0.8932,-0.8974,-0.8974,-0.9004,-0.9004,-0.9004]}]]